Meteo pe oră la Bolshie Meteski

Astăzi, 10 Mai, Luni

Timp Temperatura Precipitaţii Vânt Presiune Umiditate
00:00 +15°C° 0 mm 4 m/s 750 mmHg 69%
01:00 +15°C° 0.2 mm 4 m/s 751 mmHg 72%
02:00 +16°C° 0.2 mm 3 m/s 751 mmHg 75%
03:00 +14°C° 0.2 mm 3 m/s 751 mmHg 78%
04:00 +16°C° 0.1 mm 3 m/s 752 mmHg 77%
05:00 +16°C° 0.1 mm 3 m/s 752 mmHg 76%
06:00 +16°C° 0.1 mm 2 m/s 753 mmHg 75%
07:00 +18°C° 0 mm 2 m/s 753 mmHg 69%
08:00 +19°C° 0 mm 2 m/s 753 mmHg 63%
09:00 +20°C° 0 mm 2 m/s 754 mmHg 57%
10:00 +21°C° 0 mm 3 m/s 754 mmHg 53%
11:00 +22°C° 0 mm 3 m/s 754 mmHg 49%
12:00 +24°C° 0 mm 3 m/s 755 mmHg 44%
13:00 +25°C° 0 mm 3 m/s 755 mmHg 44%
14:00 +25°C° 0 mm 3 m/s 755 mmHg 43%
15:00 +25°C° 0 mm 3 m/s 755 mmHg 42%
16:00 +25°C° 0 mm 2 m/s 755 mmHg 46%
17:00 +24°C° 0 mm 1 m/s 756 mmHg 50%
18:00 +23°C° 0 mm 1 m/s 756 mmHg 54%
19:00 +22°C° 0 mm 1 m/s 756 mmHg 58%
20:00 +19°C° 0 mm 2 m/s 757 mmHg 62%
21:00 +17°C° 0 mm 2 m/s 757 mmHg 66%
22:00 +16°C° 0 mm 2 m/s 757 mmHg 71%
23:00 +16°C° 0 mm 3 m/s 757 mmHg 75%

Mâine, 11 Mai, Marţi

Timp Temperatura Precipitaţii Vânt Presiune Umiditate
00:00 +14°C° 0 mm 3 m/s 757 mmHg 79%
01:00 +14°C° 0 mm 3 m/s 758 mmHg 80%
02:00 +13°C° 0 mm 3 m/s 758 mmHg 80%
03:00 +13°C° 0 mm 3 m/s 758 mmHg 80%
04:00 +14°C° 0 mm 3 m/s 758 mmHg 79%
05:00 +14°C° 0 mm 3 m/s 759 mmHg 78%
06:00 +16°C° 0 mm 3 m/s 759 mmHg 77%
07:00 +18°C° 0 mm 3 m/s 759 mmHg 70%
08:00 +19°C° 0 mm 3 m/s 759 mmHg 63%
09:00 +21°C° 0 mm 3 m/s 760 mmHg 55%
10:00 +22°C° 0 mm 3 m/s 760 mmHg 51%
11:00 +24°C° 0 mm 3 m/s 760 mmHg 47%
12:00 +25°C° 0 mm 3 m/s 760 mmHg 43%
13:00 +26°C° 0 mm 2 m/s 760 mmHg 41%
14:00 +26°C° 0 mm 2 m/s 760 mmHg 38%
15:00 +26°C° 0 mm 2 m/s 760 mmHg 36%
16:00 +25°C° 0 mm 2 m/s 760 mmHg 41%
17:00 +25°C° 0 mm 1 m/s 760 mmHg 45%
18:00 +24°C° 0 mm 1 m/s 760 mmHg 50%
19:00 +21°C° 0 mm 2 m/s 760 mmHg 54%
20:00 +20°C° 0 mm 2 m/s 761 mmHg 59%
21:00 +18°C° 0 mm 2 m/s 761 mmHg 63%
22:00 +18°C° 0 mm 2 m/s 761 mmHg 65%
23:00 +17°C° 0 mm 2 m/s 761 mmHg 67%

Poimâine, 12 Mai, Miercuri

Timp Temperatura Precipitaţii Vânt Presiune Umiditate
00:00 +16°C° 0 mm 2 m/s 761 mmHg 69%
01:00 +16°C° 0 mm 2 m/s 761 mmHg 71%
02:00 +14°C° 0 mm 3 m/s 761 mmHg 72%
03:00 +14°C° 0 mm 3 m/s 761 mmHg 74%
04:00 +14°C° 0 mm 3 m/s 761 mmHg 72%
05:00 +16°C° 0 mm 3 m/s 761 mmHg 71%
06:00 +17°C° 0 mm 3 m/s 761 mmHg 69%
07:00 +19°C° 0 mm 3 m/s 762 mmHg 62%
08:00 +21°C° 0 mm 3 m/s 762 mmHg 55%
09:00 +22°C° 0 mm 4 m/s 762 mmHg 48%
10:00 +23°C° 0 mm 4 m/s 762 mmHg 44%
11:00 +25°C° 0 mm 4 m/s 762 mmHg 40%
12:00 +26°C° 0 mm 4 m/s 762 mmHg 36%
13:00 +26°C° 0 mm 4 m/s 761 mmHg 34%
14:00 +26°C° 0 mm 4 m/s 761 mmHg 33%
15:00 +26°C° 0 mm 3 m/s 761 mmHg 32%
16:00 +25°C° 0 mm 3 m/s 761 mmHg 38%
17:00 +24°C° 0 mm 2 m/s 761 mmHg 43%
18:00 +23°C° 0 mm 2 m/s 761 mmHg 49%
19:00 +21°C° 0 mm 2 m/s 761 mmHg 50%
20:00 +19°C° 0 mm 2 m/s 761 mmHg 51%
21:00 +18°C° 0 mm 2 m/s 761 mmHg 52%
22:00 +17°C° 0 mm 2 m/s 761 mmHg 52%
23:00 +17°C° 0 mm 2 m/s 761 mmHg 53%

13 Mai, Joi

Timp Temperatura Precipitaţii Vânt Presiune Umiditate
00:00 +16°C° 0 mm 2 m/s 761 mmHg 53%
01:00 +16°C° 0 mm 2 m/s 761 mmHg 55%
02:00 +16°C° 0 mm 2 m/s 761 mmHg 57%
03:00 +15°C° 0 mm 2 m/s 761 mmHg 59%
04:00 +16°C° 0 mm 2 m/s 761 mmHg 60%
05:00 +17°C° 0 mm 2 m/s 761 mmHg 61%
06:00 +18°C° 0 mm 2 m/s 761 mmHg 62%
07:00 +19°C° 0 mm 3 m/s 761 mmHg 57%
08:00 +21°C° 0 mm 3 m/s 761 mmHg 51%
09:00 +23°C° 0 mm 4 m/s 761 mmHg 46%
10:00 +25°C° 0 mm 4 m/s 761 mmHg 43%
11:00 +25°C° 0 mm 4 m/s 761 mmHg 40%
12:00 +26°C° 0 mm 4 m/s 761 mmHg 37%
13:00 +26°C° 0 mm 4 m/s 760 mmHg 36%
14:00 +27°C° 0 mm 4 m/s 760 mmHg 35%
15:00 +27°C° 0 mm 4 m/s 760 mmHg 34%
16:00 +26°C° 0 mm 3 m/s 760 mmHg 40%
17:00 +25°C° 0 mm 2 m/s 760 mmHg 46%
18:00 +24°C° 0 mm 2 m/s 760 mmHg 53%
19:00 +23°C° 0 mm 2 m/s 760 mmHg 54%
20:00 +20°C° 0 mm 2 m/s 759 mmHg 56%
21:00 +19°C° 0 mm 1 m/s 759 mmHg 57%
22:00 +19°C° 0 mm 1 m/s 759 mmHg 59%
23:00 +18°C° 0 mm 2 m/s 760 mmHg 60%

14 Mai, Vineri

Timp Temperatura Precipitaţii Vânt Presiune Umiditate
00:00 +17°C° 0 mm 2 m/s 760 mmHg 61%
01:00 +17°C° 0 mm 2 m/s 760 mmHg 62%
02:00 +16°C° 0 mm 2 m/s 760 mmHg 64%
03:00 +16°C° 0 mm 2 m/s 760 mmHg 65%
04:00 +17°C° 0 mm 2 m/s 760 mmHg 65%
05:00 +18°C° 0 mm 2 m/s 760 mmHg 65%
06:00 +18°C° 0 mm 2 m/s 760 mmHg 66%
07:00 +20°C° 0 mm 2 m/s 760 mmHg 59%
08:00 +22°C° 0 mm 3 m/s 760 mmHg 52%
09:00 +23°C° 0 mm 4 m/s 760 mmHg 46%
10:00 +25°C° 0 mm 4 m/s 760 mmHg 43%
11:00 +26°C° 0 mm 4 m/s 759 mmHg 40%
12:00 +27°C° 0 mm 4 m/s 759 mmHg 37%
13:00 +27°C° 0 mm 4 m/s 759 mmHg 37%
14:00 +27°C° 0 mm 4 m/s 759 mmHg 37%
15:00 +27°C° 0 mm 4 m/s 759 mmHg 36%
16:00 +26°C° 0 mm 3 m/s 758 mmHg 42%
17:00 +25°C° 0 mm 3 m/s 758 mmHg 48%
18:00 +24°C° 0 mm 2 m/s 758 mmHg 54%
19:00 +23°C° 0 mm 2 m/s 758 mmHg 55%
20:00 +20°C° 0 mm 2 m/s 757 mmHg 57%
21:00 +19°C° 0 mm 2 m/s 757 mmHg 59%
22:00 +18°C° 0 mm 2 m/s 757 mmHg 61%
23:00 +18°C° 0 mm 2 m/s 757 mmHg 62%

15 Mai, Sâmbătă

Timp Temperatura Precipitaţii Vânt Presiune Umiditate
00:00 +17°C° 0 mm 2 m/s 757 mmHg 63%
01:00 +17°C° 0 mm 2 m/s 757 mmHg 64%
02:00 +16°C° 0 mm 2 m/s 757 mmHg 64%
03:00 +16°C° 0 mm 2 m/s 757 mmHg 64%
04:00 +17°C° 0 mm 2 m/s 757 mmHg 64%
05:00 +18°C° 0 mm 2 m/s 757 mmHg 65%
06:00 +18°C° 0 mm 2 m/s 757 mmHg 65%
07:00 +20°C° 0 mm 3 m/s 757 mmHg 59%
08:00 +22°C° 0 mm 4 m/s 756 mmHg 53%
09:00 +25°C° 0 mm 4 m/s 756 mmHg 47%
10:00 +26°C° 0 mm 5 m/s 756 mmHg 45%
11:00 +27°C° 0 mm 5 m/s 756 mmHg 42%
12:00 +28°C° 0 mm 5 m/s 756 mmHg 39%
13:00 +28°C° 0 mm 5 m/s 756 mmHg 38%
14:00 +28°C° 0 mm 5 m/s 755 mmHg 37%
15:00 +28°C° 0 mm 5 m/s 755 mmHg 36%
16:00 +27°C° 0 mm 4 m/s 755 mmHg 42%
17:00 +26°C° 0 mm 3 m/s 755 mmHg 48%
18:00 +25°C° 0 mm 3 m/s 754 mmHg 54%
19:00 +22°C° 0 mm 3 m/s 754 mmHg 55%
20:00 +21°C° 0 mm 3 m/s 754 mmHg 55%
21:00 +19°C° 0 mm 3 m/s 754 mmHg 55%
22:00 +19°C° 0 mm 3 m/s 753 mmHg 56%
23:00 +18°C° 0 mm 2 m/s 753 mmHg 57%
Arată mai mult

Formular de consimțământ

Meteoprog și furnizorii noștri de servicii pot stoca și accesa date personale, precum cookies, identificatori de dispozitiv sau alte tehnologii similare pe dispozitivul dumneavoastră și procesa astfel de date pentru a personaliza conținutul și reclamele, dar și pentru a oferi caracteristici de social media și pentru a analiza traficul.

  • Stocarea și/sau accesarea informațiilor pe dispozitivul dumneavoastră

    Cookies, identificatori de dispozitiv sau alte informații pot fi stocate sau accesate pe dispozitiv în scopurile indicate mai sus.

  • Reclame și conținut personalizat, evaluarea reclamelor și a conținutului, informații despre audiențe și dezvoltarea produselor

    Reclamele și conținutul pot fi personalizate pe baza unui profil. Pot fi adăugate date suplimentare pentru a personaliza mai bine reclamele și conținutul. Performanța reclamelor și conținutului poate fi măsurată. Pot fi obținute informații despre utilizatorii care au văzut reclamele și conținutul. Aceste date pot fi utilizate pentru a dezvolta sau îmbunătăți experiența utilizatorilor, sistemele și software-ul.

Dând clic pe ‘Sunt de acord’, permiteți utilizarea cookie-urilor menționate, a identificatorilor de dispozitiv, balizelor web sau altor tehnologii similare. Setările pot fi modificate din browser-ul dispozitivului dumneavoastră.

În anumite scopuri, interesele legitime pot prima asupra consimțământului. Puteți citi mai multe informații în acest sens în Politica privind Confidențialitatea Datelor și Cookie.